[[{"header":{"parameterUnit":"m.s-1","parameterCategory":1,"la1":30.2991,"la2":30.254,"lo1":-89.0895,"lo2":-89.0444,"dx":0.0017,"dy":0.0017,"nx":28,"ny":28,"refTime":"2022-12-15T09:00:00:Z","depth":0,"parameterNumber":2,"parameterNumberName":"U-component_of_WINDS"},"data":[0,0,0,0,0,0,0,0,0,0,0,0,0,0,0,0,0,0,0,0,0,0,0,0,0,0,0,0,0,0,0,0,0,0,0,0,0,0,0,0,0,0,0,0,0,0,0,0,0,0,0,0,0,0,0,0,0,0,5.4798,5.4799,0,5.4812,5.4812,5.4813,5.4717,5.4715,5.4712,5.4709,5.4723,5.4725,5.4728,0,0,0,0,0,0,0,0,0,0,0,0,0,5.469,5.4693,5.4798,5.4799,5.4799,5.4812,5.4812,5.4813,5.4718,5.4714,5.4711,5.4708,5.4722,5.4725,5.4728,0,0,0,0,0,0,0,0,0,0,0,0,0,5.4724,5.4694,5.4798,5.4753,5.4749,5.4812,5.4812,5.4813,5.4718,5.4714,5.471,5.4707,5.4721,5.4725,5.4729,5.4836,0,0,5.4742,5.4744,0,0,0,0,0,0,0,0,5.4722,5.4728,5.476,5.4756,5.4752,5.4759,5.4779,5.482,5.4719,5.473,5.4709,5.4705,5.4738,5.474,5.4752,5.4836,5.4837,5.4742,5.4745,5.4747,5.4748,0,0,0,0,0,0,0,5.472,5.4727,5.4804,5.476,5.4756,5.4732,5.4733,5.4786,5.4756,5.4729,5.4722,5.4725,5.4735,5.4748,5.4751,5.4837,5.4742,5.4746,5.4749,5.475,5.5012,5.5016,0,0,0,0,0,0,5.4724,5.4726,5.4803,5.4804,5.4727,5.4737,5.4738,5.4761,5.4755,5.4751,5.4728,5.472,5.4743,5.4747,5.4752,5.4877,5.4747,5.4751,5.4753,5.5008,5.5013,5.5018,0,0,0,0,0,0,5.4722,5.4732,5.4803,5.4763,5.477,5.4744,5.477,5.4763,5.4776,5.4755,5.4749,5.4747,5.474,5.4746,5.4816,5.4876,5.4753,5.4757,5.5003,5.501,5.5016,5.5129,0,0,0,0,0,0,5.4719,5.4732,5.4772,5.4765,5.4773,5.4867,5.4774,5.4766,5.4784,5.4773,5.4771,5.4767,5.4737,5.481,5.482,5.488,5.476,5.4997,5.5006,5.5014,5.512,5.5139,5.5155,0,0,0,0,0,5.4716,5.4802,5.4774,5.4784,5.4822,5.4871,5.4875,5.4839,5.4789,5.4829,5.4816,5.4767,5.4869,5.4818,5.4829,5.4891,5.4993,5.5003,5.5013,5.5112,5.5135,5.5155,0,0,0,0,0,0,5.4816,5.4801,5.4769,5.4856,5.4866,5.4855,5.4904,5.4865,5.4888,5.4878,5.4832,5.4832,5.4911,5.4908,5.4852,5.4995,5.4922,5.4935,5.4994,5.5016,5.5033,5.5032,5.4764,0,0,0,0,0,5.4849,5.4889,5.4873,5.4952,5.4958,5.4931,5.4951,5.4922,5.493,5.4933,5.4925,5.4935,5.4969,5.4992,5.5022,5.512,5.5118,5.5168,5.5185,5.52,5.5211,5.5264,5.5286,5.505,5.505,5.505,0,0,5.4915,5.4912,5.494,5.4972,5.4976,5.502,5.4935,5.4984,5.5016,5.4941,5.5007,5.5002,5.501,5.5095,5.5132,5.5094,5.5276,5.5212,5.5224,5.5227,5.5276,5.5299,5.5318,5.5057,5.5056,5.5055,0,0,5.506,5.5061,5.5127,5.5134,5.5141,5.5123,5.5139,5.5135,5.5129,5.5195,5.514,5.5178,5.5237,5.5245,5.5257,5.5408,5.5364,5.5419,5.5511,5.5563,5.5581,5.5598,5.5652,5.5672,5.5431,5.5431,5.5431,0,5.5142,5.5205,5.5166,5.522,5.5236,5.5171,5.5239,5.5246,5.5264,5.5276,5.5235,5.531,5.531,5.5397,5.5434,5.5445,5.5463,5.5419,5.5582,5.5598,5.5612,5.5664,5.5684,5.5438,5.5437,5.5436,5.5435,0,5.5306,5.5351,5.5404,5.5423,5.5445,5.5505,5.5476,5.5503,5.5474,5.5461,5.553,5.5529,5.5558,5.5577,5.5548,5.566,5.5637,5.559,5.5515,5.5642,5.569,5.5709,5.5447,5.5445,5.5443,5.5441,0,0,5.5512,5.5511,5.5531,5.554,5.5545,5.5579,5.5637,5.5667,5.5691,5.5706,5.5754,5.5807,5.5764,5.5778,5.575,5.5796,5.5916,5.5742,5.5742,5.5775,5.6041,5.6077,5.61,5.5888,5.5891,5.5894,5.6041,0,5.5653,5.5752,5.572,5.5821,5.5862,5.5803,5.5854,5.5863,5.5852,5.5886,5.5874,5.5913,5.5853,5.5861,5.5904,5.5893,5.5969,5.5882,5.5932,5.5934,5.5932,5.6125,5.6162,5.63,5.6059,5.6062,5.6064,0,5.5831,5.5854,5.5959,5.5959,5.5975,5.6022,5.6047,5.6081,5.609,5.6079,5.6097,5.6059,5.6117,5.6044,5.6123,5.6064,5.6083,5.6081,5.6086,5.6088,5.6007,5.6133,5.6343,5.6364,5.6093,5.6091,5.6089,0,5.5972,5.6029,5.61,5.6109,5.611,5.6144,5.6147,5.6152,5.6173,5.6196,5.6209,5.6238,5.6254,5.6277,5.6249,5.6198,5.6333,5.6257,5.6326,5.6327,5.6356,5.6355,5.6573,5.6369,5.6369,5.6369,5.6368,0,5.6133,5.6199,5.6163,5.6206,5.628,5.6243,5.6317,5.6312,5.6318,5.636,5.6311,5.6351,5.6312,5.6349,5.6328,5.6398,5.6405,5.6398,5.6392,5.6403,5.6404,5.6414,5.6404,5.6374,5.6373,5.6372,5.6371,0,5.6301,5.628,5.6353,5.6349,5.635,5.6404,5.6401,5.6441,5.6428,5.6482,5.6493,5.6472,5.6513,5.6488,5.653,5.6516,5.6607,5.6587,5.6604,5.6598,5.6669,5.6663,5.6901,5.6931,5.6708,5.6711,5.6712,0,5.6405,5.6456,5.6458,5.6483,5.6489,5.6529,5.6551,5.6517,5.6541,5.6557,5.6596,5.6634,5.6662,5.6731,5.6719,5.6752,5.6732,5.6814,5.6737,5.6747,5.6734,5.6732,5.6737,5.6829,5.6832,5.6834,5.6836,0,5.6593,5.658,5.6613,5.6643,5.667,5.6692,5.671,5.6733,5.67,5.673,5.6772,5.6794,5.6838,5.6876,5.6903,5.6906,5.6866,5.686,5.6878,5.6889,5.6897,5.6894,5.6646,5.6855,5.6853,5.6851,5.685,5.6849,5.6733,5.6775,5.6784,5.6823,5.6833,5.6851,5.6889,5.6882,5.6917,5.695,5.6928,5.6979,5.6988,5.7022,5.703,5.7069,5.7036,5.7061,5.7068,5.7075,5.7085,5.6892,5.7074,5.7073,5.7073,5.7072,5.7072,0,5.6918,5.6921,5.6957,5.6984,5.7016,5.6976,5.6994,5.7023,5.7068,5.7081,5.711,5.716,5.7197,5.719,5.7223,5.7256,5.7239,5.7266,5.7263,5.7265,5.7112,5.7093,5.728,5.728,5.728,5.728,5.728,5.728,5.7018,5.7088,5.7077,5.7152,5.7155,5.7204,5.7218,5.7235,5.7246,5.7303,5.7335,5.733,5.7335,5.7369,5.7402,5.7399,5.7414,5.7448,5.7439,5.7296,5.7275,5.7256,5.7238,5.7452,5.7452,5.7588,5.759,5.7591]},{"header":{"parameterUnit":"m.s-1","parameterCategory":1,"la1":30.2991,"la2":30.254,"lo1":-89.0895,"lo2":-89.0444,"dx":0.0017,"dy":0.0017,"nx":28,"ny":28,"refTime":"2022-12-15T09:00:00:Z","depth":0,"parameterNumber":3,"parameterNumberName":"V-component_of_WINDS"},"data":[0,0,0,0,0,0,0,0,0,0,0,0,0,0,0,0,0,0,0,0,0,0,0,0,0,0,0,0,0,0,0,0,0,0,0,0,0,0,0,0,0,0,0,0,0,0,0,0,0,0,0,0,0,0,0,0,0,0,-5.9046,-5.9047,0,-5.9139,-5.914,-5.9142,-5.9107,-5.9104,-5.9102,-5.91,-5.9196,-5.9201,-5.9205,0,0,0,0,0,0,0,0,0,0,0,0,0,-5.8837,-5.8841,-5.9046,-5.9047,-5.9048,-5.9139,-5.9141,-5.9142,-5.9107,-5.9104,-5.9102,-5.9099,-5.9195,-5.92,-5.9206,0,0,0,0,0,0,0,0,0,0,0,0,0,-5.8929,-5.8842,-5.9045,-5.9042,-5.9042,-5.9139,-5.9141,-5.9142,-5.9108,-5.9104,-5.9101,-5.9098,-5.9193,-5.92,-5.9206,-5.9312,0,0,-5.9227,-5.923,0,0,0,0,0,0,0,0,-5.8924,-5.8937,-5.9041,-5.9042,-5.9043,-5.9108,-5.9102,-5.9199,-5.9108,-5.9083,-5.91,-5.9097,-5.917,-5.9178,-5.9203,-5.9317,-5.9321,-5.9228,-5.9232,-5.9235,-5.9237,0,0,0,0,0,0,0,-5.8917,-5.8932,-5.9083,-5.9042,-5.9044,-5.9035,-5.9045,-5.912,-5.9143,-5.9085,-5.9082,-5.9094,-5.9169,-5.9196,-5.9205,-5.9322,-5.9228,-5.9234,-5.9238,-5.9241,-5.953,-5.9533,0,0,0,0,0,0,-5.8911,-5.8927,-5.908,-5.9085,-5.8974,-5.9042,-5.9052,-5.909,-5.9142,-5.9147,-5.9097,-5.9092,-5.9186,-5.9197,-5.9208,-5.9336,-5.9235,-5.9241,-5.9245,-5.9526,-5.9531,-5.9535,0,0,0,0,0,0,-5.8906,-5.8925,-5.9076,-5.9006,-5.9024,-5.9049,-5.9092,-5.9094,-5.9121,-5.9151,-5.9155,-5.912,-5.9184,-5.9198,-5.9287,-5.9339,-5.9244,-5.925,-5.9522,-5.9528,-5.9533,-5.9593,0,0,0,0,0,0,-5.89,-5.8923,-5.8963,-5.9007,-5.9028,-5.9153,-5.9095,-5.9098,-5.9132,-5.9127,-5.9174,-5.9178,-5.9183,-5.9277,-5.9294,-5.9346,-5.9256,-5.9518,-5.9525,-5.9531,-5.9586,-5.9599,-5.9611,0,0,0,0,0,-5.8893,-5.8976,-5.8966,-5.8984,-5.9079,-5.9156,-5.9168,-5.9172,-5.9137,-5.9178,-5.9197,-5.9177,-5.9331,-5.9286,-5.9305,-5.936,-5.9514,-5.9523,-5.953,-5.9581,-5.9597,-5.961,0,0,0,0,0,0,-5.8937,-5.8982,-5.897,-5.907,-5.911,-5.915,-5.9201,-5.9189,-5.9239,-5.9232,-5.9234,-5.9245,-5.9336,-5.9357,-5.9307,-5.9467,-5.9417,-5.943,-5.9449,-5.9465,-5.9477,-5.9469,-5.9261,0,0,0,0,0,-5.8959,-5.9018,-5.9053,-5.9138,-5.9158,-5.9177,-5.9211,-5.921,-5.9251,-5.9267,-5.9293,-5.9334,-5.9392,-5.943,-5.9484,-5.959,-5.96,-5.9637,-5.9649,-5.9659,-5.967,-5.9728,-5.9745,-5.9561,-5.9561,-5.9561,0,0,-5.9003,-5.9035,-5.9072,-5.9148,-5.9178,-5.9239,-5.9191,-5.9257,-5.9303,-5.9277,-5.9363,-5.9384,-5.943,-5.9527,-5.9572,-5.9548,-5.9723,-5.967,-5.9677,-5.9682,-5.9738,-5.9755,-5.9771,-5.9567,-5.9566,-5.9565,0,0,-5.9116,-5.9146,-5.922,-5.9252,-5.9299,-5.9311,-5.9329,-5.9372,-5.9385,-5.9471,-5.9454,-5.9508,-5.9607,-5.9641,-5.9671,-5.9799,-5.9782,-5.9816,-5.988,-5.9937,-5.9951,-5.9964,-6.001,-6.0026,-5.9827,-5.9827,-5.9827,0,-5.9165,-5.9256,-5.9259,-5.9328,-5.9362,-5.9343,-5.9418,-5.9449,-5.9512,-5.9536,-5.9508,-5.9633,-5.9663,-5.9768,-5.98,-5.9825,-5.9845,-5.981,-5.9949,-5.9962,-5.9974,-6.0018,-6.0035,-5.9831,-5.983,-5.983,-5.983,0,-5.9315,-5.9379,-5.9433,-5.9495,-5.9535,-5.9606,-5.9621,-5.9661,-5.9658,-5.9673,-5.9762,-5.9797,-5.9858,-5.9884,-5.9881,-5.999,-5.9973,-5.9948,-5.9898,-5.9995,-6.0036,-6.0053,-5.9836,-5.9835,-5.9834,-5.9833,0,0,-5.9456,-5.952,-5.9539,-5.9568,-5.9619,-5.9669,-5.974,-5.9801,-5.9836,-5.9881,-5.9941,-6.0026,-6.0003,-6.0037,-6.0038,-6.0088,-6.0188,-6.0057,-6.0058,-6.008,-6.0311,-6.0329,-6.0348,-6.0178,-6.0181,-6.0183,-6.0307,0,-5.9572,-5.9697,-5.9703,-5.9816,-5.9876,-5.9859,-5.9921,-5.996,-5.9977,-6.003,-6.0049,-6.0109,-6.0074,-6.0095,-6.0144,-6.0165,-6.0234,-6.0157,-6.0234,-6.0236,-6.0222,-6.037,-6.0389,-6.0503,-6.0323,-6.0326,-6.0327,0,-5.9724,-5.9774,-5.9894,-5.9938,-5.9963,-6.0019,-6.0076,-6.0127,-6.0171,-6.018,-6.0219,-6.0214,-6.0287,-6.0237,-6.0339,-6.0286,-6.0318,-6.0334,-6.0338,-6.0345,-6.0287,-6.038,-6.054,-6.0557,-6.0353,-6.0351,-6.0349,0,-5.9815,-5.9912,-5.9996,-6.0021,-6.0075,-6.0115,-6.0139,-6.018,-6.0217,-6.0267,-6.0291,-6.0349,-6.0381,-6.0427,-6.0437,-6.0399,-6.054,-6.0489,-6.0549,-6.0549,-6.0578,-6.0576,-6.0745,-6.06,-6.06,-6.06,-6.06,0,-5.9943,-6.0017,-6.0038,-6.0089,-6.0172,-6.0179,-6.0261,-6.0282,-6.032,-6.0376,-6.0366,-6.0419,-6.043,-6.0486,-6.0495,-6.0578,-6.0593,-6.0602,-6.0603,-6.0603,-6.0601,-6.0623,-6.0615,-6.0604,-6.0603,-6.0603,-6.0602,0,-6.0058,-6.0074,-6.0165,-6.021,-6.0223,-6.0282,-6.032,-6.037,-6.0386,-6.0458,-6.0475,-6.0501,-6.0566,-6.0581,-6.0659,-6.0665,-6.0764,-6.0758,-6.0749,-6.0748,-6.0807,-6.0801,-6.0995,-6.1021,-6.086,-6.0862,-6.0863,0,-6.0138,-6.0195,-6.0245,-6.0282,-6.0309,-6.0369,-6.0406,-6.0416,-6.0455,-6.0511,-6.0555,-6.0619,-6.0671,-6.0776,-6.0802,-6.0862,-6.0857,-6.0921,-6.0866,-6.0863,-6.0858,-6.0854,-6.086,-6.0931,-6.0933,-6.0934,-6.0935,0,-6.0279,-6.0285,-6.034,-6.0398,-6.0443,-6.049,-6.0534,-6.0565,-6.0581,-6.0626,-6.0693,-6.0733,-6.0813,-6.0877,-6.0938,-6.0963,-6.0953,-6.0953,-6.097,-6.0969,-6.0961,-6.0966,-6.0777,-6.0948,-6.0947,-6.0946,-6.0945,-6.0945,-6.0379,-6.0429,-6.0473,-6.0534,-6.0569,-6.0611,-6.066,-6.0683,-6.0739,-6.0804,-6.0807,-6.088,-6.0925,-6.1005,-6.1034,-6.1092,-6.1072,-6.1097,-6.1103,-6.1109,-6.1114,-6.0953,-6.1103,-6.1103,-6.1103,-6.1102,-6.1102,0,-6.0519,-6.0547,-6.0604,-6.0666,-6.0715,-6.0701,-6.075,-6.0792,-6.0856,-6.0898,-6.095,-6.1027,-6.109,-6.1122,-6.1184,-6.1224,-6.1221,-6.124,-6.1237,-6.1243,-6.1128,-6.1107,-6.1242,-6.1242,-6.1242,-6.1242,-6.1242,-6.1242,-6.0598,-6.0681,-6.0693,-6.0794,-6.0822,-6.0893,-6.0922,-6.0961,-6.0995,-6.1082,-6.1134,-6.1155,-6.1193,-6.1259,-6.1316,-6.1324,-6.1347,-6.1369,-6.1374,-6.1266,-6.1251,-6.1238,-6.1218,-6.1374,-6.1374,-6.1485,-6.1486,-6.1487]}]]